Weather History for Jackson, KY

Change the Weather History Date:

Wednesday, January 1, 2014

  Actual Average Record
Temperature  
Mean Temperature 40 °F 35 °F  
Max Temperature 52 °F 43 °F 69 °F (1985)
Min Temperature 28 °F 27 °F 11 °F (1999)
Degree Days  
Heating Degree Days 25 30  
Month to date heating degree days 25 30  
Since 1 July heating degree days 1670 1664  
Cooling Degree Days 0 0  
Month to date cooling degree days 0 0  
Year to date cooling degree days 0 0  
Moisture  
Dew Point 19 °F    
Average Humidity 48    
Maximum Humidity 69    
Minimum Humidity 26    
Precipitation  
Precipitation 0.00 in 0.12 in 0.71 in (2003)
Month to date precipitation 0.00 0.12  
Year to date precipitation 0.00 0.12  
Snow  
Snow 0.00 in 0.20 in - ()
Month to date snowfall 0.0 0.2  
Since 1 July snowfall 4.3 5.7  
Snow Depth 0.00 in    
Sea Level Pressure  
Sea Level Pressure 30.22 in    
Wind  
Wind Speed 4 mph (SW)    
Max Wind Speed 9 mph    
Max Gust Speed 14 mph    
Visibility 10 miles    
Events      
T = Trace of Precipitation, MM = Missing Value Source: NWS Daily Summary

Daily Weather History Graph

Daily Weather History Graph

Search for Another Location

Airport:

Trip Planner

Search our weather history database for the weather conditions in past years. The results will help you decide how hot, cold, wet, or windy it might be!

Date:

Astronomy

Jan. 01, 2014 Rise Set
Actual Time 7:48 AM EST 5:25 PM EST
Civil Twilight 7:19 AM EST 5:54 PM EST
Nautical Twilight 6:46 AM EST 6:27 PM EST
Astronomical Twilight 6:14 AM EST 6:59 PM EST
Moon 7:38 AM EST (1/1) 6:07 PM EST (1/1)
Length of Visible Light 10h 35m
Length of Day
9h 37m
New Moon, 0% of the Moon is Illuminated
Jan 1
New Moon
Jan 7
First Quarter
Jan 15
Full
Jan 24
Last Quarter
Jan 30
New

Hourly Weather History & Observations

Time (EST) Temp. Windchill Dew Point Humidity Pressure Visibility Wind Dir Wind Speed Gust Speed Precip Events Conditions
12:53 AM 30.0 °F 26.5 °F 19.9 °F 66% 30.31 in 10.0 mi SSW 3.5 mph - N/A   Clear
1:53 AM 30.0 °F 26.5 °F 19.0 °F 64% 30.31 in 10.0 mi SW 3.5 mph - N/A   Clear
2:53 AM 30.0 °F 26.5 °F 19.9 °F 66% 30.31 in 10.0 mi WSW 3.5 mph - N/A   Clear
3:53 AM 30.9 °F 23.5 °F 19.9 °F 64% 30.32 in 10.0 mi WSW 8.1 mph - N/A   Clear
4:53 AM 30.0 °F 24.1 °F 19.9 °F 66% 30.32 in 10.0 mi WSW 5.8 mph - N/A   Clear
5:53 AM 30.0 °F 24.1 °F 19.9 °F 66% 30.32 in 10.0 mi WSW 5.8 mph - N/A   Clear
6:53 AM 28.9 °F 23.9 °F 19.9 °F 69% 30.32 in 10.0 mi SW 4.6 mph - N/A   Clear
7:53 AM 28.0 °F 24.2 °F 19.9 °F 72% 30.32 in 10.0 mi SW 3.5 mph - N/A   Clear
8:53 AM 30.9 °F 27.5 °F 21.0 °F 67% 30.32 in 10.0 mi South 3.5 mph - N/A   Clear
9:53 AM 34.0 °F - 21.9 °F 61% 30.31 in 10.0 mi Calm Calm - N/A   Clear
10:53 AM 37.0 °F 34.5 °F 24.1 °F 59% 30.30 in 10.0 mi Variable 3.5 mph - N/A   Clear
11:53 AM 41.0 °F 39.0 °F 24.1 °F 51% 30.27 in 10.0 mi Variable 3.5 mph - N/A   Clear
12:53 PM 46.0 °F 44.8 °F 23.0 °F 40% 30.21 in 10.0 mi Variable 3.5 mph - N/A   Clear
1:53 PM 50.0 °F - 21.0 °F 32% 30.17 in 10.0 mi Variable 3.5 mph - N/A   Clear
2:53 PM 51.1 °F - 18.0 °F 27% 30.15 in 10.0 mi Variable 4.6 mph - N/A   Clear
3:53 PM 50.0 °F - 17.1 °F 27% 30.14 in 10.0 mi Variable 3.5 mph - N/A   Clear
4:53 PM 46.9 °F - 16.0 °F 29% 30.12 in 10.0 mi WSW 4.6 mph - N/A   Clear
5:53 PM 43.0 °F 41.3 °F 17.1 °F 35% 30.12 in 10.0 mi SW 3.5 mph - N/A   Clear
6:53 PM 44.1 °F 41.5 °F 17.1 °F 34% 30.13 in 10.0 mi Variable 4.6 mph - N/A   Clear
7:53 PM 43.0 °F 40.3 °F 18.0 °F 37% 30.12 in 10.0 mi South 4.6 mph - N/A   Clear
8:53 PM 39.9 °F 37.8 °F 18.0 °F 41% 30.10 in 10.0 mi SSW 3.5 mph - N/A   Clear
9:53 PM 39.9 °F 37.8 °F 17.1 °F 40% 30.08 in 10.0 mi SSW 3.5 mph - N/A   Clear
10:53 PM 39.9 °F - 17.1 °F 40% 30.07 in 10.0 mi Calm Calm - N/A   Clear
11:53 PM 39.9 °F 37.8 °F 17.1 °F 40% 30.04 in 10.0 mi SSE 3.5 mph - N/A   Clear